Location: Mercogliano
(40.9167°N, 14.7333°E)
Time: 05:06:14
(UTC+00:00)

USA 238 DEB - Pass Details

Date: 18 September 2020
Orbit: 1006 x 1206 km, 63.4° (Epoch: 15 October)

Event Time Altitude Azimuth Distance (km) Brightness Sun altitude
Rises 19:34:42 0° 324° (NW) 3,964 7.7 -27.9°
Reaches altitude 10° 19:37:21 10° 324° (NW) 3,030 6.9 -28.4°
Maximum altitude 19:44:39 86° 237° (WSW) 1,181 3.8 -29.5°
Enters shadow 19:45:39 70° 159° (SSE) 1,246 3.7 -29.7°
